• In Hungary
  • List of Countries
  • For 7 days
  • Water Temperature
  • Satellite Maps
  • Weather Map
  • News
  • Weather Widgets
  • user-avatar
    Login

    Hourly Weather Puerto Momotombo

    Today, 27 May, Sunday

    Time Temperature Precipitation Wind Pressure Humidity
    00:00 +26°C° 1.6 mm 2 mps 731 mmHg 87%
    01:00 +26°C° 2.6 mm 2 mps 731 mmHg 87%
    02:00 +26°C° 2.6 mm 2 mps 731 mmHg 87%
    03:00 +26°C° 2.6 mm 2 mps 731 mmHg 87%
    04:00 +26°C° 2.8 mm 2 mps 731 mmHg 87%
    05:00 +26°C° 2.8 mm 2 mps 731 mmHg 87%
    06:00 +26°C° 2.8 mm 2 mps 731 mmHg 88%
    07:00 +26°C° 2.5 mm 2 mps 731 mmHg 87%
    08:00 +27°C° 2.5 mm 2 mps 732 mmHg 86%
    09:00 +27°C° 2.5 mm 2 mps 732 mmHg 85%
    10:00 +27°C° 2 mm 2 mps 732 mmHg 84%
    11:00 +27°C° 2 mm 2 mps 731 mmHg 83%
    12:00 +28°C° 2 mm 2 mps 731 mmHg 82%
    13:00 +28°C° 1.5 mm 3 mps 731 mmHg 82%
    14:00 +28°C° 1.5 mm 3 mps 730 mmHg 82%
    15:00 +28°C° 1.5 mm 3 mps 730 mmHg 82%
    16:00 +27°C° 0.8 mm 3 mps 730 mmHg 84%
    17:00 +27°C° 0.8 mm 2 mps 730 mmHg 87%
    18:00 +26°C° 0.8 mm 2 mps 731 mmHg 89%
    19:00 +26°C° 0.8 mm 2 mps 731 mmHg 90%
    20:00 +26°C° 0.8 mm 2 mps 732 mmHg 90%
    21:00 +26°C° 0.8 mm 2 mps 732 mmHg 91%
    22:00 +26°C° 1.3 mm 1 mps 732 mmHg 92%
    23:00 +26°C° 1.3 mm 1 mps 732 mmHg 92%

    Tomorrow, 28 May, Monday

    Time Temperature Precipitation Wind Pressure Humidity
    00:00 +25°C° 1.3 mm 1 mps 732 mmHg 92%
    01:00 +25°C° 1 mm 1 mps 732 mmHg 92%
    02:00 +25°C° 1 mm 1 mps 731 mmHg 93%
    03:00 +23°C° 1 mm 0 mps 731 mmHg 93%
    04:00 +25°C° 0.4 mm 1 mps 731 mmHg 93%
    05:00 +25°C° 0.4 mm 1 mps 731 mmHg 93%
    06:00 +25°C° 0.4 mm 1 mps 731 mmHg 93%
    07:00 +26°C° 0.1 mm 1 mps 732 mmHg 88%
    08:00 +27°C° 0.1 mm 2 mps 732 mmHg 84%
    09:00 +28°C° 0.1 mm 2 mps 733 mmHg 80%
    10:00 +29°C° 0.2 mm 2 mps 732 mmHg 75%
    11:00 +30°C° 0.2 mm 2 mps 732 mmHg 71%
    12:00 +31°C° 0.2 mm 3 mps 732 mmHg 67%
    13:00 +30°C° 0.9 mm 3 mps 731 mmHg 70%
    14:00 +30°C° 0.9 mm 3 mps 731 mmHg 72%
    15:00 +29°C° 0.9 mm 3 mps 730 mmHg 75%
    16:00 +28°C° 0.8 mm 3 mps 731 mmHg 79%
    17:00 +28°C° 0.8 mm 2 mps 731 mmHg 82%
    18:00 +27°C° 0.8 mm 2 mps 731 mmHg 86%
    19:00 +27°C° 0.7 mm 1 mps 731 mmHg 87%
    20:00 +26°C° 0.7 mm 1 mps 732 mmHg 88%
    21:00 +26°C° 0.7 mm 1 mps 733 mmHg 90%
    22:00 +26°C° 0.8 mm 1 mps 732 mmHg 90%
    23:00 +26°C° 0.8 mm 1 mps 732 mmHg 91%

    Day after tomorrow, 29 May, Tuesday

    Time Temperature Precipitation Wind Pressure Humidity
    00:00 +25°C° 0.8 mm 1 mps 732 mmHg 91%
    01:00 +25°C° 0.5 mm 1 mps 732 mmHg 91%
    02:00 +25°C° 0.5 mm 1 mps 731 mmHg 91%
    03:00 +25°C° 0.5 mm 1 mps 731 mmHg 91%
    04:00 +25°C° 0.3 mm 1 mps 731 mmHg 90%
    05:00 +25°C° 0.3 mm 1 mps 731 mmHg 90%
    06:00 +25°C° 0.3 mm 1 mps 731 mmHg 89%
    07:00 +27°C° 0.1 mm 1 mps 732 mmHg 83%
    08:00 +28°C° 0.1 mm 2 mps 732 mmHg 77%
    09:00 +30°C° 0.1 mm 2 mps 733 mmHg 70%
    10:00 +30°C° 0.3 mm 2 mps 732 mmHg 67%
    11:00 +31°C° 0.3 mm 3 mps 732 mmHg 65%
    12:00 +33°C° 0.3 mm 3 mps 732 mmHg 62%
    13:00 +33°C° 0.7 mm 3 mps 731 mmHg 64%
    14:00 +32°C° 0.7 mm 4 mps 730 mmHg 66%
    15:00 +32°C° 0.7 mm 4 mps 730 mmHg 67%
    16:00 +30°C° 0.3 mm 3 mps 730 mmHg 72%
    17:00 +29°C° 0.3 mm 3 mps 730 mmHg 76%
    18:00 +28°C° 0.3 mm 2 mps 730 mmHg 80%
    19:00 +27°C° 0.1 mm 2 mps 731 mmHg 82%
    20:00 +27°C° 0.1 mm 2 mps 732 mmHg 83%
    21:00 +27°C° 0.1 mm 1 mps 732 mmHg 85%
    22:00 +26°C° 0.2 mm 1 mps 732 mmHg 86%
    23:00 +26°C° 0.2 mm 1 mps 732 mmHg 87%

    30 May, Wednesday

    Time Temperature Precipitation Wind Pressure Humidity
    00:00 +26°C° 0.2 mm 1 mps 732 mmHg 88%
    01:00 +26°C° 0.7 mm 1 mps 731 mmHg 89%
    02:00 +26°C° 0.7 mm 1 mps 731 mmHg 89%
    03:00 +25°C° 0.7 mm 1 mps 731 mmHg 90%
    04:00 +26°C° 0.4 mm 1 mps 731 mmHg 89%
    05:00 +26°C° 0.4 mm 1 mps 731 mmHg 89%
    06:00 +26°C° 0.4 mm 1 mps 731 mmHg 88%
    07:00 +27°C° 0.2 mm 2 mps 732 mmHg 82%
    08:00 +28°C° 0.2 mm 2 mps 732 mmHg 76%
    09:00 +30°C° 0.2 mm 2 mps 733 mmHg 70%
    10:00 +31°C° 0.3 mm 2 mps 732 mmHg 67%
    11:00 +31°C° 0.3 mm 3 mps 732 mmHg 63%
    12:00 +33°C° 0.3 mm 3 mps 731 mmHg 60%
    13:00 +33°C° 0.9 mm 3 mps 731 mmHg 63%
    14:00 +31°C° 0.9 mm 3 mps 730 mmHg 65%
    15:00 +32°C° 0.9 mm 4 mps 730 mmHg 68%
    16:00 +30°C° 0.8 mm 3 mps 730 mmHg 72%
    17:00 +29°C° 0.8 mm 3 mps 730 mmHg 77%
    18:00 +28°C° 0.8 mm 2 mps 730 mmHg 82%
    19:00 +27°C° 0.7 mm 2 mps 731 mmHg 84%
    20:00 +27°C° 0.7 mm 1 mps 731 mmHg 85%
    21:00 +27°C° 0.7 mm 1 mps 732 mmHg 87%
    22:00 +26°C° 1.6 mm 1 mps 732 mmHg 88%
    23:00 +26°C° 1.6 mm 1 mps 732 mmHg 88%

    31 May, Thursday

    Time Temperature Precipitation Wind Pressure Humidity
    00:00 +26°C° 1.6 mm 1 mps 731 mmHg 89%
    01:00 +26°C° 0.9 mm 1 mps 731 mmHg 89%
    02:00 +26°C° 0.9 mm 1 mps 731 mmHg 89%
    03:00 +25°C° 0.9 mm 1 mps 731 mmHg 88%
    04:00 +26°C° 0.2 mm 1 mps 731 mmHg 88%
    05:00 +26°C° 0.2 mm 1 mps 731 mmHg 87%
    06:00 +26°C° 0.2 mm 1 mps 731 mmHg 87%
    07:00 +27°C° 0.1 mm 1 mps 732 mmHg 81%
    08:00 +29°C° 0.1 mm 1 mps 732 mmHg 75%
    09:00 +30°C° 0.1 mm 1 mps 733 mmHg 69%
    10:00 +31°C° 0.6 mm 2 mps 732 mmHg 65%
    11:00 +32°C° 0.6 mm 2 mps 732 mmHg 62%
    12:00 +34°C° 0.6 mm 2 mps 731 mmHg 58%
    13:00 +32°C° 0.5 mm 2 mps 731 mmHg 60%
    14:00 +32°C° 0.5 mm 2 mps 730 mmHg 61%
    15:00 +33°C° 0.5 mm 3 mps 730 mmHg 62%
    16:00 +31°C° 1.1 mm 2 mps 730 mmHg 68%
    17:00 +29°C° 1.1 mm 2 mps 731 mmHg 73%
    18:00 +28°C° 1.1 mm 2 mps 731 mmHg 79%
    19:00 +28°C° 1.5 mm 1 mps 731 mmHg 81%
    20:00 +27°C° 1.5 mm 1 mps 732 mmHg 83%
    21:00 +27°C° 1.5 mm 1 mps 732 mmHg 84%
    22:00 +27°C° 0.8 mm 1 mps 732 mmHg 85%
    23:00 +26°C° 0.8 mm 1 mps 732 mmHg 86%

    1 June, Friday

    Time Temperature Precipitation Wind Pressure Humidity
    00:00 +26°C° 0.8 mm 1 mps 731 mmHg 87%
    01:00 +26°C° 0.7 mm 1 mps 731 mmHg 88%
    02:00 +26°C° 0.7 mm 1 mps 731 mmHg 88%
    03:00 +26°C° 0.7 mm 1 mps 731 mmHg 88%
    04:00 +26°C° 0.5 mm 1 mps 731 mmHg 88%
    05:00 +26°C° 0.5 mm 1 mps 731 mmHg 88%
    06:00 +26°C° 0.5 mm 1 mps 732 mmHg 87%
    07:00 +27°C° 0.1 mm 1 mps 732 mmHg 80%
    08:00 +29°C° 0.1 mm 1 mps 732 mmHg 73%
    09:00 +31°C° 0.1 mm 1 mps 733 mmHg 66%
    10:00 +32°C° 0.3 mm 1 mps 732 mmHg 62%
    11:00 +33°C° 0.3 mm 1 mps 732 mmHg 57%
    12:00 +34°C° 0.3 mm 1 mps 732 mmHg 53%
    13:00 +34°C° 0.9 mm 2 mps 731 mmHg 56%
    14:00 +34°C° 0.9 mm 2 mps 731 mmHg 58%
    15:00 +32°C° 0.9 mm 2 mps 730 mmHg 61%
    16:00 +31°C° 2.1 mm 2 mps 731 mmHg 68%
    17:00 +29°C° 2.1 mm 1 mps 731 mmHg 76%
    18:00 +28°C° 2.1 mm 1 mps 731 mmHg 83%
    19:00 +28°C° 0.8 mm 1 mps 731 mmHg 84%
    20:00 +27°C° 0.8 mm 1 mps 732 mmHg 85%
    21:00 +25°C° 0.8 mm 0 mps 732 mmHg 86%
    22:00 +27°C° 0.2 mm 1 mps 732 mmHg 86%
    23:00 +27°C° 0.2 mm 1 mps 732 mmHg 86%
    Show more